[[{"header":{"parameterUnit":"m.s-1","parameterCategory":1,"la1":30.2991,"la2":30.254,"lo1":-89.0895,"lo2":-89.0444,"dy":0.0017,"dx":0.0017,"nx":28,"ny":28,"refTime":"2024-05-25T03:00:00:Z","depth":0,"parameterNumber":2,"parameterNumberName":"U-component_of_WINDS"},"data":[0,0,0,0,0,0,0,0,0,0,0,0,0,0,0,0,0,0,0,0,0,0,0,0,0,0,0,0,0,0,0,0,0,0,0,0,0,0,0,0,0,0,0,0,0,0,0,0,0,0,0,0,0,0,0,0,0,0,-0.832,-0.8319,0,-0.8226,-0.8225,-0.8224,-0.8168,-0.8168,-0.8167,-0.8167,-0.8068,-0.8065,-0.8063,0,0,0,0,0,0,0,0,0,0,0,0,0,-0.8449,-0.8447,-0.832,-0.8319,-0.8318,-0.8226,-0.8225,-0.8224,-0.8168,-0.8168,-0.8167,-0.8167,-0.8068,-0.8066,-0.8063,0,0,0,0,0,0,0,0,0,0,0,0,0,-0.8378,-0.8446,-0.8321,-0.8279,-0.8275,-0.8227,-0.8225,-0.8223,-0.8168,-0.8168,-0.8167,-0.8167,-0.8069,-0.8066,-0.8062,-0.8047,0,0,-0.8051,-0.805,0,0,0,0,0,0,0,0,-0.8382,-0.8373,-0.8286,-0.8282,-0.8277,-0.8208,-0.8234,-0.8164,-0.8168,-0.8208,-0.8167,-0.8167,-0.8115,-0.8107,-0.809,-0.8042,-0.8038,-0.8051,-0.8049,-0.8047,-0.8046,0,0,0,0,0,0,0,-0.8387,-0.8377,-0.8283,-0.8285,-0.8279,-0.8264,-0.8254,-0.822,-0.8165,-0.8205,-0.8201,-0.819,-0.8112,-0.8094,-0.8087,-0.8037,-0.8051,-0.8048,-0.8045,-0.8044,-0.797,-0.797,0,0,0,0,0,0,-0.8399,-0.8381,-0.8286,-0.828,-0.8329,-0.8262,-0.8251,-0.8231,-0.8165,-0.8154,-0.8191,-0.8188,-0.81,-0.8092,-0.8084,-0.806,-0.8047,-0.8044,-0.8042,-0.797,-0.797,-0.797,0,0,0,0,0,0,-0.8402,-0.8391,-0.829,-0.8329,-0.8315,-0.826,-0.8239,-0.8229,-0.8211,-0.8154,-0.8144,-0.8183,-0.81,-0.8089,-0.8056,-0.8056,-0.8042,-0.8039,-0.797,-0.797,-0.797,-0.8015,0,0,0,0,0,0,-0.8405,-0.8392,-0.8387,-0.833,-0.8314,-0.8265,-0.8239,-0.8227,-0.8205,-0.8201,-0.8144,-0.8134,-0.8098,-0.8062,-0.8053,-0.8051,-0.8036,-0.7969,-0.797,-0.797,-0.8013,-0.8017,-0.802,0,0,0,0,0,-0.841,-0.8403,-0.8387,-0.8375,-0.8306,-0.8265,-0.8256,-0.8216,-0.8206,-0.8199,-0.8162,-0.8136,-0.8058,-0.8059,-0.8048,-0.8045,-0.7969,-0.797,-0.797,-0.8012,-0.8016,-0.802,0,0,0,0,0,0,-0.846,-0.8394,-0.8376,-0.835,-0.8314,-0.8256,-0.8247,-0.8222,-0.8187,-0.8185,-0.8136,-0.8123,-0.8095,-0.8067,-0.807,-0.8027,-0.8011,-0.8009,-0.8046,-0.805,-0.8053,-0.8059,-0.8033,0,0,0,0,0,-0.8468,-0.8442,-0.8386,-0.8368,-0.8351,-0.8302,-0.8283,-0.8255,-0.8216,-0.82,-0.8161,-0.8122,-0.8089,-0.8068,-0.8034,-0.8009,-0.7995,-0.8002,-0.8005,-0.8008,-0.8007,-0.799,-0.7992,-0.7972,-0.7972,-0.7972,0,0,-0.8484,-0.8445,-0.8431,-0.8377,-0.8346,-0.8318,-0.8289,-0.8262,-0.8241,-0.8195,-0.8162,-0.8132,-0.8086,-0.8057,-0.8042,-0.8033,-0.8009,-0.8009,-0.8011,-0.8008,-0.7991,-0.7992,-0.7994,-0.7972,-0.7972,-0.7972,0,0,-0.8499,-0.8468,-0.8449,-0.8418,-0.8372,-0.8339,-0.8335,-0.8281,-0.8259,-0.8226,-0.819,-0.8164,-0.8108,-0.8076,-0.8053,-0.8055,-0.8029,-0.8046,-0.8062,-0.8047,-0.8048,-0.8049,-0.8049,-0.8049,-0.8045,-0.8045,-0.8045,0,-0.8525,-0.8483,-0.8442,-0.8416,-0.8393,-0.8351,-0.8331,-0.8303,-0.8247,-0.8232,-0.8222,-0.815,-0.8116,-0.8079,-0.8079,-0.8062,-0.8054,-0.8051,-0.8052,-0.8052,-0.8053,-0.8051,-0.8052,-0.8047,-0.8047,-0.8047,-0.8047,0,-0.8516,-0.8488,-0.8478,-0.8426,-0.8401,-0.8379,-0.8333,-0.8313,-0.8288,-0.8256,-0.8221,-0.8179,-0.8136,-0.8125,-0.81,-0.8083,-0.8079,-0.8061,-0.8044,-0.8057,-0.8055,-0.8055,-0.805,-0.805,-0.8049,-0.8048,0,0,-0.8559,-0.8485,-0.8482,-0.8457,-0.8403,-0.8379,-0.8354,-0.8312,-0.8295,-0.8259,-0.8235,-0.8189,-0.8172,-0.8145,-0.8116,-0.8103,-0.8106,-0.8086,-0.8084,-0.809,-0.8083,-0.8096,-0.8096,-0.8089,-0.8089,-0.8088,-0.8087,0,-0.8565,-0.8519,-0.8481,-0.8448,-0.8421,-0.8381,-0.8358,-0.8322,-0.8292,-0.8263,-0.8229,-0.8196,-0.8177,-0.8161,-0.8146,-0.8109,-0.8103,-0.8108,-0.8065,-0.8064,-0.8077,-0.8096,-0.8109,-0.811,-0.8086,-0.8086,-0.8086,0,-0.8566,-0.8531,-0.8496,-0.8443,-0.843,-0.8411,-0.8369,-0.8343,-0.83,-0.8279,-0.8249,-0.8219,-0.8189,-0.8176,-0.8133,-0.8137,-0.8117,-0.8097,-0.8095,-0.8089,-0.8075,-0.8088,-0.8109,-0.8109,-0.8085,-0.8085,-0.8085,0,-0.8599,-0.8543,-0.8515,-0.8495,-0.8433,-0.8421,-0.8394,-0.8351,-0.8328,-0.8291,-0.8276,-0.8236,-0.8214,-0.8183,-0.8142,-0.8137,-0.8103,-0.8087,-0.8084,-0.8085,-0.8077,-0.8078,-0.8094,-0.8067,-0.8067,-0.8067,-0.8067,0,-0.8609,-0.8589,-0.8529,-0.8511,-0.8487,-0.8443,-0.8419,-0.8389,-0.8351,-0.8326,-0.8289,-0.8266,-0.8214,-0.8184,-0.8152,-0.8121,-0.8112,-0.8093,-0.8084,-0.8095,-0.8097,-0.808,-0.8079,-0.8067,-0.8067,-0.8067,-0.8067,0,-0.8642,-0.8601,-0.8567,-0.8511,-0.8497,-0.8481,-0.8433,-0.8413,-0.8381,-0.835,-0.834,-0.8289,-0.8252,-0.8208,-0.8157,-0.8135,-0.8106,-0.8094,-0.8121,-0.8116,-0.8114,-0.8115,-0.8119,-0.8116,-0.8093,-0.8093,-0.8093,0,-0.865,-0.8633,-0.8576,-0.8557,-0.8531,-0.8501,-0.8478,-0.8434,-0.841,-0.836,-0.8347,-0.8307,-0.8273,-0.8216,-0.8173,-0.8134,-0.812,-0.8124,-0.8113,-0.8125,-0.8118,-0.8119,-0.8116,-0.8126,-0.8127,-0.8127,-0.8128,0,-0.8669,-0.8649,-0.8617,-0.8578,-0.8551,-0.8518,-0.8483,-0.8469,-0.8418,-0.8393,-0.8356,-0.8329,-0.8277,-0.8238,-0.8193,-0.8164,-0.8137,-0.8131,-0.8128,-0.8139,-0.8154,-0.8144,-0.8127,-0.8131,-0.8131,-0.813,-0.813,-0.813,-0.8688,-0.8671,-0.8628,-0.8593,-0.8562,-0.853,-0.8509,-0.8474,-0.8442,-0.8397,-0.8373,-0.8335,-0.8292,-0.8229,-0.8201,-0.817,-0.8161,-0.8157,-0.8155,-0.8154,-0.8157,-0.8161,-0.8162,-0.8162,-0.8162,-0.8161,-0.8161,0,-0.8704,-0.8674,-0.8642,-0.8595,-0.8567,-0.8545,-0.8505,-0.8483,-0.8451,-0.8413,-0.8381,-0.8336,-0.8298,-0.8253,-0.8211,-0.8195,-0.8182,-0.8186,-0.8186,-0.8179,-0.8169,-0.8175,-0.8197,-0.8197,-0.8197,-0.8197,-0.8197,-0.8197,-0.8708,-0.8678,-0.8653,-0.8607,-0.8577,-0.854,-0.8519,-0.8489,-0.8458,-0.8411,-0.8379,-0.8351,-0.8309,-0.8264,-0.8228,-0.8215,-0.8201,-0.8209,-0.8192,-0.8183,-0.818,-0.8177,-0.8183,-0.8206,-0.8206,-0.8205,-0.8205,-0.8205]},{"header":{"parameterUnit":"m.s-1","parameterCategory":1,"la1":30.2991,"la2":30.254,"lo1":-89.0895,"lo2":-89.0444,"dy":0.0017,"dx":0.0017,"nx":28,"ny":28,"refTime":"2024-05-25T03:00:00:Z","depth":0,"parameterNumber":3,"parameterNumberName":"V-component_of_WINDS"},"data":[0,0,0,0,0,0,0,0,0,0,0,0,0,0,0,0,0,0,0,0,0,0,0,0,0,0,0,0,0,0,0,0,0,0,0,0,0,0,0,0,0,0,0,0,0,0,0,0,0,0,0,0,0,0,0,0,0,0,4.6432,4.6431,0,4.6324,4.6323,4.6322,4.6255,4.6254,4.6254,4.6254,4.6135,4.6132,4.6129,0,0,0,0,0,0,0,0,0,0,0,0,0,4.6575,4.6573,4.6433,4.6431,4.643,4.6324,4.6323,4.6321,4.6255,4.6254,4.6254,4.6254,4.6136,4.6132,4.6129,0,0,0,0,0,0,0,0,0,0,0,0,0,4.6495,4.6572,4.6433,4.6384,4.6379,4.6325,4.6323,4.6321,4.6255,4.6254,4.6254,4.6253,4.6137,4.6133,4.6128,4.6112,0,0,4.6115,4.6114,0,0,0,0,0,0,0,0,4.6499,4.6489,4.6393,4.6387,4.6381,4.6303,4.6329,4.6251,4.6255,4.6302,4.6254,4.6253,4.6191,4.6182,4.6162,4.6106,4.6101,4.6115,4.6112,4.6111,4.6109,0,0,0,0,0,0,0,4.6505,4.6494,4.6389,4.6391,4.6384,4.6366,4.6354,4.6314,4.625,4.6298,4.6292,4.6281,4.6187,4.6167,4.6159,4.6099,4.6115,4.6111,4.6109,4.6107,4.6025,4.6026,0,0,0,0,0,0,4.6519,4.6499,4.6393,4.6386,4.6441,4.6363,4.635,4.6328,4.625,4.6238,4.6282,4.6278,4.6174,4.6164,4.6155,4.6131,4.6111,4.6107,4.6104,4.6025,4.6025,4.6026,0,0,0,0,0,0,4.6523,4.651,4.6397,4.6441,4.6425,4.6362,4.6338,4.6326,4.6306,4.6238,4.6226,4.6273,4.6173,4.6161,4.6124,4.6126,4.6105,4.6101,4.6024,4.6025,4.6026,4.6083,0,0,0,0,0,0,4.6527,4.6512,4.6506,4.6442,4.6423,4.637,4.6338,4.6325,4.6299,4.6294,4.6227,4.6215,4.6172,4.6131,4.612,4.6119,4.6097,4.6024,4.6025,4.6025,4.608,4.6085,4.6089,0,0,0,0,0,4.6532,4.6525,4.6507,4.6494,4.6415,4.6371,4.636,4.6313,4.63,4.6293,4.625,4.6217,4.6128,4.6127,4.6114,4.6113,4.6024,4.6024,4.6025,4.6078,4.6084,4.6089,0,0,0,0,0,0,4.6588,4.6515,4.6494,4.6466,4.6426,4.636,4.6349,4.6321,4.6281,4.6277,4.6218,4.6203,4.6173,4.6139,4.614,4.6093,4.6072,4.607,4.6116,4.6121,4.6126,4.6134,4.6094,0,0,0,0,0,4.6598,4.657,4.6507,4.6488,4.6469,4.6413,4.6391,4.636,4.6314,4.6295,4.6249,4.6204,4.6166,4.6142,4.6103,4.6075,4.6059,4.6068,4.6073,4.6077,4.6075,4.6059,4.6062,4.6029,4.6029,4.6029,0,0,4.6616,4.6573,4.6558,4.6498,4.6463,4.6433,4.6399,4.6368,4.6346,4.629,4.6253,4.6218,4.6164,4.6133,4.6116,4.6103,4.6082,4.6078,4.6082,4.6078,4.606,4.6064,4.6067,4.6029,4.6029,4.6029,0,0,4.6634,4.6599,4.658,4.6547,4.6495,4.6459,4.6454,4.6393,4.6369,4.6332,4.629,4.6261,4.6196,4.616,4.6133,4.614,4.6109,4.6129,4.6152,4.6137,4.6139,4.6141,4.6144,4.6146,4.6128,4.6129,4.6129,0,4.6663,4.6619,4.6573,4.6547,4.6522,4.6474,4.6453,4.6422,4.6359,4.6341,4.6329,4.6248,4.6208,4.6168,4.617,4.615,4.6142,4.6136,4.6143,4.6145,4.6146,4.6148,4.6149,4.6131,4.6131,4.6131,4.613,0,4.6657,4.6628,4.6618,4.6563,4.6536,4.6513,4.6462,4.644,4.6411,4.6375,4.6338,4.6289,4.624,4.6228,4.6197,4.6183,4.6177,4.6155,4.6132,4.6153,4.6154,4.6154,4.6135,4.6134,4.6134,4.6133,0,0,4.6705,4.6628,4.6625,4.66,4.6541,4.6516,4.649,4.6445,4.6428,4.6386,4.6362,4.631,4.629,4.626,4.6225,4.6212,4.6222,4.6191,4.6188,4.6198,4.6203,4.622,4.6222,4.6201,4.6201,4.6201,4.6208,0,4.6715,4.667,4.6629,4.6597,4.6569,4.6524,4.6502,4.6462,4.6428,4.6398,4.6359,4.6324,4.63,4.6281,4.6266,4.6224,4.6222,4.6223,4.6176,4.6175,4.6192,4.6222,4.624,4.6249,4.6208,4.6208,4.6208,0,4.672,4.6685,4.6652,4.6597,4.6584,4.6565,4.6521,4.6493,4.6447,4.6423,4.6391,4.6356,4.6325,4.6307,4.6263,4.6265,4.6243,4.622,4.6219,4.6212,4.6193,4.6216,4.625,4.6252,4.6208,4.6208,4.6208,0,4.6759,4.6703,4.6676,4.6656,4.6591,4.6579,4.6551,4.6505,4.6481,4.6442,4.6426,4.6383,4.6359,4.6326,4.628,4.627,4.6241,4.6218,4.6219,4.622,4.6214,4.6215,4.6245,4.6201,4.6201,4.6201,4.6201,0,4.6774,4.6755,4.6693,4.6677,4.6654,4.6607,4.6585,4.6553,4.6513,4.6488,4.6445,4.6422,4.6363,4.6332,4.6295,4.6265,4.6254,4.6233,4.6223,4.6237,4.6239,4.6221,4.6219,4.6201,4.6201,4.6201,4.6201,0,4.6813,4.6771,4.6739,4.6682,4.6668,4.6654,4.6604,4.6585,4.655,4.6519,4.6509,4.6453,4.6415,4.6366,4.6312,4.6287,4.6261,4.6246,4.6277,4.6272,4.6275,4.6276,4.6295,4.6295,4.6252,4.6252,4.6253,0,4.6826,4.6811,4.6754,4.6736,4.671,4.6681,4.6658,4.661,4.6587,4.6535,4.6523,4.6482,4.6448,4.6389,4.6342,4.63,4.6284,4.6293,4.6277,4.6291,4.6284,4.6285,4.6284,4.6297,4.6298,4.6298,4.6299,0,4.6852,4.6832,4.6802,4.6765,4.6739,4.6706,4.6672,4.6659,4.6603,4.658,4.6542,4.6516,4.6462,4.6422,4.6375,4.6344,4.6312,4.6305,4.6303,4.6316,4.6335,4.6325,4.6288,4.6304,4.6304,4.6303,4.6303,4.6303,4.6877,4.6863,4.6821,4.6789,4.6759,4.6728,4.6709,4.6673,4.6642,4.6597,4.657,4.6534,4.6488,4.6422,4.6393,4.6362,4.635,4.6347,4.6346,4.6346,4.6351,4.6341,4.6353,4.6353,4.6353,4.6353,4.6353,0,4.6901,4.6873,4.6844,4.6799,4.6774,4.675,4.671,4.669,4.666,4.6622,4.659,4.6547,4.6509,4.646,4.6418,4.6403,4.6388,4.6394,4.6394,4.6387,4.6364,4.637,4.6407,4.6407,4.6407,4.6407,4.6407,4.6407,4.6911,4.6886,4.6862,4.682,4.6791,4.6758,4.6738,4.6709,4.6679,4.6634,4.6604,4.6573,4.6531,4.6486,4.6449,4.6436,4.6422,4.6433,4.6415,4.6394,4.6389,4.6384,4.639,4.643,4.643,4.6441,4.6441,4.6441]}]]